www.pogodaiklimat.ru
ПОГОДА в Санта-Крусе
Время
(UTC), дата
21 12.10
09 13.10
12 13.10
15 13.10
18 13.10
21 13.10
12 14.10
15 14.10
18 14.10
21 14.10
12 15.10
15 15.10
18 15.10
21 15.10
09 16.10
12 16.10
15 16.10
18 16.10
21 16.10
09 17.10
12 17.10
15 17.10
18 17.10
21 17.10
09 18.10
12 18.10
18 18.10
21 18.10
12 19.10
15 19.10
18 19.10
Ветер
(напр.,м/с)
Видим. Явления Облачность Т
(С)
Тd
(С)
f
(%)
Тe
(С)
Тes
(С)
Комфортность P
(гПа)
Po
(гПа)
Тmin
(С)
Tmax
(С)
R
(мм)
R24
(мм)
S
(см)
С 10 15 км 4/3 500 м
[Cu med, cong Ci fib]
+32.0 +18.6 45 +37 +37 очень
душно
1002.5 956.2 +33.8
СЗ 9 15 км 3/3 500 м
[Sc]
+24.5 +19.9 76 +30 +30 очень
душно
1005.8 958.2
СЗ 10 9000 м дым 3/3 450 м
[Sc]
+25.3 +19.9 72 +31 +31 очень
душно
1008.0 960.4 +23.4
СЗ 12 15 км 5/5 500 м
[Cu hum]
+30.5 +19.9 53 +37 +37 очень
душно
1007.5 960.7
СЗ 12 15 км 5/5 600 м
[Cu hum]
+33.1 +18.9 43 +38 +38 очень
душно
1004.2 958.0
СЗ 10 15 км дым 4/4 600 м
[Cu hum]
+32.2 +18.6 45 +37 +37 очень
душно
1002.4 956.1 +33.8
З 3 3500 м дым 6/0 2000 м
[Ac trans Ci fib]
+26.5 +20.1 68 +33 +36 очень
душно
1012.2 964.6 +24.8
З 4 7000 м дым 6/6 480 м
[Cu med, cong Ci fib]
+31.6 +20.4 52 +39 +44 очень
душно
1011.2 964.4
ЮЗ 2 8000 м дым {метель} 8/8 600 м
[Cb cap Ci sp]
+33.0 +19.1 44 +38 +42 очень
душно
1008.1 961.7
Ю 4 18 км 5/5 600 м
[Cb cap Ci ing]
+30.4 +20.6 56 +37 +38 очень
душно
1007.1 960.3 +33.7
Ю 6 8000 м слаб. дождь 10/6 800 м
[Sc As op]
+19.2 +15.0 77 +20 +20 тепло 1018.6 969.5 +18.2 0.4
Ю 8 15 км {дождь} 10/6 800 м
[Sc As op]
+18.0 +13.2 74 +17 +17 тепло 1019.8 970.5
ЮВ 5 20 км {дождь} 9/0 2000 м
[Ac As Cs]
+22.0 +14.2 61 +25 +29 комфорт 1015.9 967.4 0.0
ЮВ 6 20 км 5/0 2000 м
[Ac trans]
+22.5 +12.8 54 +25 +26 комфорт 1012.8 964.5 +22.8
Ю 7 20 км 5/0 2000 м
[Ac trans Ci fib]
+18.0 +12.3 69 +17 +17 тепло 1016.9 967.7
Ю 7 20 км 9/5 800 м
[Sc Ac As]
+18.0 +10.9 63 +17 +18 тепло 1018.9 969.6 +17.5 0.0
Ю 6 20 км 8/3 800 м
[Sc Ac trans]
+22.5 +11.8 51 +25 +28 комфорт 1017.8 969.3
З 2 20 км 8/0 2000 м
[Ac trans Ci fib]
+27.6 +14.4 44 +30 +41 жарко 1013.5 966.0
СЗ 5 20 км 8/1 700 м
[Sc Ac trans Ci fib]
+27.0 +15.7 50 +30 +31 душно 1010.4 963.0 +29.0
СЗ 2 20 км ясно +20.0 +17.0 83 +24 +24 комфорт 1011.5 962.9
С 2 20 км 5/0
[Cc]
+23.5 +17.6 69 +27 +32 душно 1013.8 965.6 +20.0
СЗ 8 20 км 4/1 450 м
[Cu hum Ac trans]
+28.5 +16.5 48 +32 +35 душно 1012.5 965.2
СЗ 6 18 км 4/4 600 м
[Cu hum]
+32.1 +19.2 46 +37 +41 очень
душно
1009.0 962.4
СЗ 7 18 км 4/4 700 м
[Sc diur, vesp Ci fib]
+30.4 +19.4 52 +36 +37 очень
душно
1006.8 960.1 +33.5
Ю 6 15 км 9/4 300 м
[Sc Ac und]
+20.1 +13.6 66 +22 +22 комфорт 1013.9 965.2
Ю 5 20 км 10/6 750 м
[Sc Ac As]
+20.5 +13.3 63 +23 +23 комфорт 1016.8 968.0 +20.0
Ю 4 20 км 8/0
[Cs]
+29.0 +16.4 47 +32 +42 душно 1012.0 964.8
Ю 6 20 км 9/0
[Cs]
+28.2 +15.9 47 +31 +32 душно 1009.2 962.0 +30.0
Ю 8 15 км осадки на расстоянии 10/6 750 м
[Sc As op]
+18.5 +13.9 75 +18 +18 тепло 1019.4 970.2 +16.5
Ю 8 7000 м слаб. дождь 10/6 750 м
[Sc As op]
+18.0 +15.5 85 +17 +17 тепло 1019.7 970.4
ЮВ 8 20 км 9/0 2000 м
[Ac trans Cs]
+25.5 +14.8 52 +28 +31 жарко 1014.7 966.8 3
Местоположение метеостанции Санта-Крус (Боливия): широта -17.80 долгота -63.18 высота над уровнем моря 418 м.
В архиве по умолчанию представлена погода в Санта-Крусе за последнюю неделю. Архивные данные за месяц целиком и за предыдущие месяцы, начиная с января 2011 года, Вы можете получить, выбрав интересующий диапазон дат из раскрывающегося списка и нажав кнопку "Найти!".
*Определитесь, кто Вы:
Внимание! Время в таблицах - всемирное. Для получения местного времени необходимо прибавить поправку, которая равна -4 ч.
Смотрите также архив погоды в соседних городах и на ближайших метеорологических станциях:
Партнеры нашего сайта:      
Пояснения к столбцам:
  • Ветер - указаны скорость ветра в м/с - средняя за 10 мин, порывы в срок и между сроками (в фигурных скобках) и направление, откуда дует ветер: С - северный,
  • СВ - северо-восточный, В - восточный, ЮВ - юго-восточный, Ю - южный, ЮЗ - юго-западный, З - западный, СЗ - северо-западный.
  • Видимость - горизонтальная дальность видимости в метрах или километрах. При видимости от 1 до 10 км при отсутствии осадков обычно наблюдается дымка, при ухудшении видимости до 1 км и менее - туман. В сухую погоду видимость может ухудшаться дымом, пылью или мглою.
  • Явления - указаны атмосферные явления, наблюдавшиеся в срок или в последний час перед сроком; фигурными скобками обозначены явления, наблюдавшиеся между сроками (за 1-3 часа до срока); квадратными скобками обозначены град или гололедные отложения с указанием их диаметра в мм.
  • Облачность - указаны через наклонную черту общая и нижняя облачность в баллах и высота нижней границы облаков в метрах; квадратными скобками обозначены формы облаков: Ci - перистые, Cs - перисто-слоистые, Cc - перисто-кучевые, Ac - высококучевые, As - высокослоистые, Sc - слоисто-кучевые, Ns - слоисто-дождевые, Cu - кучевые, Cb - кучево-дождевые. Подробнее классификацию облаков см. в Атласе облаков (PDF).
  • T - Температура воздуха - температура, измеренная на высоте 2 м над землей.
  • Td - Температура точки росы - температура, при понижении до которой содержащийся в воздухе водяной пар достигнет насыщения.
  • f - Относительная влажность воздуха - влажноcть воздуха, измеренная на высоте 2 м над землей.
  • Te - Эффективная температура - температура, которую ощущает одетый по сезону человек в тени. Характеристика душности погоды. При расчете учитывается влияние влажности воздуха и скорости ветра на теплоощущения человека.
  • Tes - Эффективная температура на солнце - температура, которую ощущает человек, с поправкой на солнечный нагрев. Характеристика знойности погоды. Зависит от высоты солнца над горизонтом, облачности и скорости ветра. Ночью, в пасмурную погоду, а также при ветре 12 м/с и более поправка равна нулю.
  • P - Атмосферное давление - приведенное к уровню моря атмосферное давление.
  • Po - Атмосферное давление - измеренное на уровне метеостанции атмосферное давление.
  • Tmin - Минимальная температура - минимум температуры воздуха на высоте 2 м над землей.
  • Tmax - Максимальная температура - максимум температуры воздуха на высоте 2 м над землей.
  • R - Количество осадков - Количество выпавших осадков за период времени, мм. При наведении курсора мыши на число - период времени, за который выпало указанное количество осадков.
  • R24 - Количество осадков - Количество выпавших осадков за 24 часа, мм.
  • S - Снежный покров - Высота снежного покрова, см. При наведении курсора мыши на число - состояние снежного покрова и степень покрытия местности в баллах.